Погода в Аксёнове

Россия / Омская область     57°41′19″N   71°30′51″E
темп.,
°C
ветер,
м/с
пор.,
м/с
влажн.,
%
обл.,
%
осадки,
мм/ч
давл.,
гПа
погр.,
м
27 января, ср
ср2700:000зюз51397100 0.8 1018665
03:000з51396100 0.1 1017701
06:000з51193100 0.3 1018611
09:00−3з41194100 0.3 1020540
12:00−4з489499 0.4 1021428
15:00−3з4894100 0.1 1023530
18:00−4з2796100 0.3 1025391
21:00−5зюз379692 0.3 1026249
28 января, чт
чт2800:00−8зюз249789 0.4 102597
03:00−9юз279798 0.1 1025205
06:00−11юз269799 0.1 1025213
09:00−11ююз3698100 0.1 1023185
12:00−7юз41194100 0.1 1021452
15:00−4юз51291100 0.0 1019651
18:00−3зюз51389100 0.0 1017796
21:00−3зюз61488100 0.0 1017814
29 января, пт
пт2900:00−3зюз61394100 0.7 1016889
03:00−3з51294100 0.6 1018772
06:00−3зсз41091100 0.8 1020612
09:00−7з239675 0.0 102271
12:00−4з389567 0.0 1024431
15:00−4з359499 0.0 1025438
18:00−5сз239699 0.1 1026144
21:00−9св3596100 0.1 1028162
30 января, сб
сб3000:00−14св3595100 0.1 1029166
03:00−16всв3596100 0.2 1030172
06:00−17всв3696100 0.3 1030203
09:00−18в3796100 0.1 1030240
12:00−17вюв3695100 0.1 1030253
15:00−15вюв4795100 0.1 1029293
18:00−15вюв41096100 0.1 1028276
21:00−14вюв41095100 0.0 1027332
31 января, вс
вс3100:00−14юв41095100 0.1 1026346
03:00−15юв4995100 0.0 1025332
06:00−15юв3996100 0.1 1024281
09:00−15юв3896100 0.0 1023253
12:00−12юв3795100 0.1 1023280
15:00−10юв3595100 0.0 1022323
18:00−13вюв2497100 0.1 102280
21:00−15юв239894 0.0 102252